Regional Weather Roundup
Issued by NWS Mt. Holly, NJ

Home | Current Version | Previous Version | Text Only | Print | Product List | Glossary On
Versions: 1 2 3 4 5 6 7 8 9 10 11 12 13 14 15 16 17 18 19 20 21 22 23 24 25 26 27
000
ASUS41 KPHI 290412
RWRPHI

REGIONAL WEATHER ROUNDUP
NATIONAL WEATHER SERVICE MOUNT HOLLY NJ
1200 AM EDT WED MAR 29 2017

NOTE:  "FAIR" INDICATES FEW OR NO CLOUDS BELOW 12,000 FEET WITH NO
SIGNIFICANT WEATHER AND/OR OBSTRUCTIONS TO VISIBILITY.

 * = STATION DOES NOT REPORT PRECIPITATION (E.G. RAIN, SNOW, ETC.)
        OR FOG.

NJZ015>026-290500-
SOUTHERN NEW JERSEY

CITY           SKY/WX    TMP DP  RH WIND       PRES   REMARKS
POMONA         CLOUDY    46  44  93 N9        29.93R
WILDWOOD*      CLOUDY    50  49  96 N7        29.94R
MILLVILLE      CLOUDY    48  48 100 N7        29.94R
WRIGHTSTOWN    CLOUDY    44  43  95 NW9       29.92R
MOUNT HOLLY    CLOUDY    46  45  96 NE5       29.95S
TRENTON        CLOUDY    46  45  96 VRB3      29.95R

$$
NJZ001>014-290500-
NORTHERN NEW JERSEY

CITY           SKY/WX    TMP DP  RH WIND       PRES   REMARKS
SUSSEX         CLOUDY    45  45 100 CALM      29.94S
ANDOVER*         N/A     44  44 100 CALM      29.94S
MORRISTOWN     CLOUDY    43  43 100 CALM      29.94S FOG
NEWARK         CLOUDY    45  44  97 N8        29.94S
TETERBORO      CLOUDY    45  44  97 NW5       29.93R FOG
CALDWELL       CLOUDY    44  42  93 CALM      29.94S FOG
SOMERVILLE     CLOUDY    46  45  96 CALM      29.93S FOG
ALLAIRE*       LGT RAIN  42  42 100 N7        29.94R
TOMS RIVER*    CLOUDY    44  43  96 N9        29.93S

$$
PAZ043-044-047-054-055-060>062-066>071-290500-
EASTERN PENNSYLVANIA

CITY           SKY/WX    TMP DP  RH WIND       PRES   REMARKS
PHILADELPHIA   CLOUDY    49  46  90 N8        29.96R
NORTH PHILA    CLOUDY    48  46  93 N6        29.96S
BLUE BELL*     CLOUDY    43  43 100 CALM      29.95R
DOYLESTOWN     FOG       45  45 100 CALM      29.94R VSB 1
QUAKERTOWN*    MOCLDY    46  46 100 N3        29.96R
PERKASIE*      FOG       45  45 100 CALM      29.96R VSB 1
POTTSTOWN      PTCLDY    47  47 100 CALM      29.96S FOG
LANCASTER      CLOUDY    52  52 100 CALM      29.96R FOG
COATESVILLE    CLOUDY    50  50 100 NW5       29.97R
READING        CLOUDY    49  49 100 NW8       29.96R
ALLENTOWN      CLOUDY    49  46  90 CALM      29.95R
MOUNT POCONO   CLOUDY    43  43 100 NW12G23   29.93R
HAZLETON       CLOUDY    45  43  93 N12G18    30.01R
LEHIGHTON      FAIR      52  45  76 NW3G18    29.97R
WILKES BARRE   CLOUDY    47  43  86 N14       30.00R

$$
DEZALL-MDZ008-012-015-019-020-290500-
DELAWARE AND EASTERN MARYLAND

CITY           SKY/WX    TMP DP  RH WIND       PRES   REMARKS
WILMINGTON     MOCLDY    49  49 100 CALM      29.96R
DOVER          CLOUDY    52  52 100 N10       29.94R
GEORGETOWN     CLOUDY    56  52  86 N9        29.94R
EASTON         PTCLDY    58  53  83 NE5       29.98S
ABERDEEN       CLOUDY    54  52  93 CALM      29.97R
PATUXENT       MOCLDY    58  55  90 N7        29.94R
OCEAN CITY     PTCLDY    56  52  86 N10       29.91S
WALLOPS ISLAND CLEAR     59  56  89 NW8       29.91R
CAMBRIDGE      MOCLDY    57  54  88 N7        29.94R
SALISBURY      PTCLDY    58  56  93 N8        29.92R

$$
PAZ001-021-NYZ056-072-MDZ011-DCZ001-290500-
OTHER NEARBY LOCATIONS

CITY           SKY/WX    TMP DP  RH WIND       PRES   REMARKS
HARRISBURG     CLOUDY    57  49  74 N13G20    29.97R
STATE COLLEGE  CLOUDY    51  47  84 N12       30.02S
WILLIAMSPORT   CLOUDY    50  42  74 NW8       30.03R
BINGHAMTON     CLOUDY    37  36  96 N14       30.02S WCI  28
NEW YORK CITY  CLOUDY    44  43  96 NE3       29.95S
BALTIMORE      CLOUDY    59  54  83 N3        29.95R
WASHINGTON DC  CLOUDY    63  54  72 N9        29.96R

$$




USA.gov is the U.S. government's official web portal to all federal, state and local government web resources and services.